TimeMDT,TemperatureF,Dew PointF,Humidity,Sea Level PressureIn,VisibilityMPH,Wind Direction,Wind SpeedMPH,Gust SpeedMPH,PrecipitationIn,Events,Conditions,WindDirDegrees,DateUTC
12:56 AM,66.0,62.1,87,29.90,-9999.0,East,17.3,-,N/A,,Unknown,80,2013-09-08 06:56:00
1:56 AM,64.0,62.1,93,29.86,-9999.0,East,20.7,27.6,0.03,,Unknown,90,2013-09-08 07:56:00
2:56 AM,64.0,61.0,90,29.85,-9999.0,ESE,15.0,-,N/A,,Unknown,110,2013-09-08 08:56:00
3:43 AM,64.9,60.1,84,30.01,-9999.0,NNW,9.2,23.0,N/A,,Unknown,340,2013-09-08 09:43:00
3:56 AM,64.9,60.1,84,29.91,-9999.0,NNW,15.0,-,N/A,,Unknown,340,2013-09-08 09:56:00
4:56 AM,61.0,60.1,97,29.94,-9999.0,NE,12.7,-,0.66,,Unknown,40,2013-09-08 10:56:00
5:56 AM,62.1,60.1,93,29.98,-9999.0,WNW,19.6,24.2,0.01,,Unknown,300,2013-09-08 11:56:00
6:33 AM,62.1,61.0,96,29.97,-9999.0,East,18.4,-,0.22,,Unknown,90,2013-09-08 12:33:00
6:56 AM,62.1,61.0,96,29.92,-9999.0,East,16.1,-,0.22,,Unknown,90,2013-09-08 12:56:00
7:56 AM,64.0,61.0,90,29.91,-9999.0,ESE,9.2,-,N/A,,Unknown,120,2013-09-08 13:56:00
8:56 AM,69.1,63.0,81,29.88,-9999.0,ESE,11.5,-,N/A,,Unknown,120,2013-09-08 14:56:00
9:56 AM,73.0,61.0,66,29.86,-9999.0,SE,20.7,25.3,N/A,,Unknown,140,2013-09-08 15:56:00
10:56 AM,73.9,63.0,68,29.86,-9999.0,SSE,15.0,26.5,N/A,,Unknown,150,2013-09-08 16:56:00
11:56 AM,73.0,64.0,73,29.86,-9999.0,SSE,11.5,-,N/A,,Unknown,160,2013-09-08 17:56:00
12:56 PM,73.0,64.0,73,29.85,-9999.0,South,9.2,-,N/A,,Unknown,170,2013-09-08 18:56:00
1:56 PM,75.0,64.9,71,29.83,-9999.0,Calm,Calm,-,N/A,,Unknown,0,2013-09-08 19:56:00
2:56 PM,77.0,64.9,66,29.80,-9999.0,Variable,3.5,-,N/A,,Unknown,0,2013-09-08 20:56:00
3:56 PM,78.1,64.0,62,29.77,-9999.0,South,3.5,-,N/A,,Unknown,190,2013-09-08 21:56:00
4:56 PM,78.1,64.9,64,29.75,-9999.0,South,3.5,-,N/A,,Unknown,190,2013-09-08 22:56:00
5:56 PM,75.9,64.9,69,29.74,-9999.0,East,6.9,-,N/A,,Unknown,100,2013-09-08 23:56:00
6:56 PM,73.9,66.0,76,29.72,-9999.0,East,4.6,-,N/A,,Unknown,80,2013-09-09 00:56:00
7:56 PM,73.0,66.0,79,29.73,-9999.0,ESE,4.6,-,N/A,,Unknown,120,2013-09-09 01:56:00
8:56 PM,71.1,68.0,90,29.72,-9999.0,SE,10.4,-,N/A,,Unknown,140,2013-09-09 02:56:00
9:56 PM,63.0,61.0,93,29.73,-9999.0,NNW,16.1,20.7,0.30,,Unknown,330,2013-09-09 03:56:00
10:56 PM,64.0,61.0,90,29.72,-9999.0,NE,8.1,-,0.01,,Unknown,50,2013-09-09 04:56:00
11:56 PM,64.0,62.1,93,29.68,-9999.0,WSW,4.6,-,N/A,,Unknown,250,2013-09-09 05:56:00